Wind_Speed
16 16 16 16 16 16 16 16 17 17 18 19 20 21 22 23 23 23 23 21 20 19 17 17 16 15 15 13 12 12 11 11 12 12 10 9 15 22 24 25 27 29 28 27 27 25 23 20 18 16 13 12 10 7 8 9 9 9 5 4 4 5 5 6 5 2 6 11 12 10 8 6 4 4 6 7 6 5 5 4 3 4 8 8 10 13 12 14
16 16 16 16 16 16 16 16 16 17 17 18 18 19 20 21 22 23 23 22 21 20 19 18 18 17 16 15 14 13 12 12 12 11 10 10 15 20 22 25 29 30 30 29 27 25 23 21 19 17 15 13 10 9 10 9 10 9 7 6 5 7 8 9 7 3 1 10 13 10 10 7 3 1 1 3 1 3 4 5 5 4 7 9 11 13 13 15
17 17 16 16 16 16 16 16 16 16 17 17 17 18 18 19 20 21 22 22 22 21 20 19 19 18 17 17 16 15 14 13 11 10 10 10 13 17 20 24 27 28 28 28 26 25 24 21 20 18 17 15 12 11 10 10 10 9 10 8 7 8 9 10 8 4 4 5 13 12 10 10 9 5 2 1 1 3 5 3 2 3 5 7 9 10 12 16
18 17 17 17 16 16 16 16 16 16 16 17 17 17 17 18 19 19 21 21 21 21 20 20 20 18 18 18 17 17 16 14 12 10 9 9 12 17 19 22 25 26 26 27 28 28 26 24 22 19 18 16 14 14 12 11 9 10 11 6 7 8 11 10 7 3 7 6 7 13 12 11 13 11 7 4 2 4 6 5 3 2 1 4 7 7 10 14
19 18 18 18 18 17 17 17 17 16 16 16 17 17 17 17 18 18 19 19 20 20 20 20 21 20 18 18 18 18 16 14 9 6 6 9 13 17 19 21 23 25 25 27 30 31 30 28 26 23 21 18 16 16 13 11 10 12 10 7 8 8 12 11 6 2 8 11 6 11 16 13 13 15 12 4 4 5 5 6 5 5 4 1 3 5 9 12
20 19 19 19 18 18 18 18 17 17 16 16 16 16 17 17 17 18 18 18 19 19 19 20 21 21 19 19 19 18 17 12 6 6 7 8 12 15 18 21 22 25 26 28 30 33 32 31 29 27 23 20 18 17 13 11 13 15 12 10 9 7 11 11 3 5 10 13 11 9 15 17 16 16 14 5 4 2 1 2 2 3 5 4 1 2 7 11
20 20 20 20 19 19 19 19 18 18 17 16 16 16 17 17 17 18 17 18 17 17 18 18 21 21 20 20 19 19 18 10 7 13 10 7 9 12 16 21 23 25 27 29 31 34 35 33 31 27 24 21 19 18 15 13 15 17 15 13 9 6 10 7 5 11 12 13 14 13 13 18 21 20 17 7 2 4 4 2 2 1 3 3 3 3 5 8
21 21 21 20 20 20 20 20 20 19 18 17 16 17 17 17 17 17 17 17 16 17 16 17 20 20 20 20 19 20 14 5 8 16 12 8 9 9 13 20 24 25 27 29 31 33 34 34 31 28 26 23 21 19 17 17 18 20 17 14 12 10 9 8 11 12 11 12 15 17 17 17 21 25 23 12 4 8 8 8 6 4 2 2 3 4 7 10
21 21 21 21 21 21 20 21 21 20 19 18 18 18 18 18 17 16 16 16 16 16 16 17 18 19 20 19 20 18 9 7 13 15 13 11 11 9 11 17 22 25 26 28 29 32 34 33 30 28 27 24 22 21 19 20 21 21 19 18 17 15 14 14 13 10 10 12 15 19 19 17 18 24 30 21 12 10 12 12 10 8 5 2 1 3 7 12
23 23 22 22 22 22 21 21 21 21 20 19 19 20 20 19 17 15 15 16 16 16 16 17 17 18 18 18 20 13 5 10 14 13 12 12 12 10 11 15 20 24 26 28 30 33 34 31 29 27 27 25 24 23 21 22 23 21 20 21 21 20 19 17 15 11 9 11 13 17 17 16 18 24 31 27 19 13 14 15 12 10 8 5 1 1 7 12
25 25 24 23 23 23 22 22 22 21 20 20 21 21 22 20 18 16 15 16 16 16 17 17 17 17 17 18 17 9 8 13 13 12 13 13 13 12 10 12 17 22 24 25 28 31 30 28 27 27 27 26 26 25 24 24 23 22 21 22 23 23 21 19 16 13 10 10 10 15 16 15 19 26 29 27 21 14 13 15 12 10 10 8 3 1 7 12
26 26 26 26 25 24 24 23 23 22 21 21 22 22 22 21 19 18 17 16 17 17 17 17 18 17 17 16 8 4 10 15 15 15 15 15 16 15 13 12 14 18 20 22 25 28 28 28 28 29 28 27 27 25 24 25 25 24 22 24 25 24 23 21 18 15 13 12 11 15 16 18 22 26 28 28 24 17 15 16 14 12 11 11 7 3 6 12
25 26 26 26 27 26 26 25 24 23 23 23 23 23 22 21 21 20 19 18 18 18 18 18 18 17 18 11 3 7 12 15 18 18 18 18 18 18 17 16 16 17 20 20 21 24 26 28 29 30 29 28 28 25 22 24 26 25 22 24 26 26 25 22 18 17 14 13 13 15 19 24 25 25 27 29 24 19 18 17 16 13 13 13 10 6 7 9
24 25 25 26 26 27 27 27 26 25 24 25 24 23 22 22 22 21 20 19 20 19 19 19 18 19 17 7 6 13 15 18 21 20 19 19 19 19 19 18 19 20 22 22 22 23 25 26 27 29 30 31 30 27 24 21 21 22 22 24 26 28 26 22 18 19 17 16 16 17 23 29 27 24 28 30 26 21 19 18 17 14 13 14 12 9 8 7
25 25 25 25 25 26 27 28 27 26 26 26 25 24 23 23 23 22 21 20 21 21 20 20 19 20 18 8 7 16 18 19 19 20 21 21 21 20 18 17 17 20 22 25 26 27 27 27 29 30 31 32 31 30 28 24 20 19 20 22 25 26 27 25 21 21 21 20 19 19 25 30 27 24 27 30 29 23 20 20 19 16 14 15 14 11 9 7
25 25 25 25 25 25 26 27 27 26 27 27 26 25 24 25 24 23 22 21 22 22 21 21 20 21 19 11 10 15 20 21 18 21 25 23 22 20 17 17 18 21 23 26 28 29 31 30 31 32 32 32 33 33 30 29 27 24 22 23 24 24 26 27 23 21 21 19 19 21 25 29 26 24 27 31 30 26 23 22 21 19 15 15 16 13 10 9
25 25 25 25 25 26 26 26 26 26 27 27 27 26 26 26 25 24 23 22 22 22 22 23 22 22 20 14 12 13 17 23 22 22 24 23 22 22 21 19 19 22 24 26 29 31 32 32 33 34 34 34 34 33 30 33 34 30 26 25 25 23 24 27 25 21 19 17 17 20 24 27 26 26 27 31 32 30 26 23 22 21 18 16 17 16 12 9
24 25 25 25 25 26 27 27 26 25 25 26 26 25 26 27 26 25 24 24 23 23 23 23 23 23 19 13 15 15 16 23 26 23 22 21 22 24 23 19 19 22 25 28 30 32 33 33 33 33 36 37 36 36 36 35 35 32 27 26 27 25 25 27 26 21 18 17 17 19 21 22 24 28 30 31 33 33 30 24 21 22 20 17 18 19 15 10
24 23 23 23 23 24 27 28 27 27 25 25 26 25 25 26 26 26 25 25 24 23 22 23 23 22 16 9 11 16 18 21 26 26 23 21 22 24 24 22 22 23 26 30 31 33 35 33 34 37 41 42 41 42 42 37 32 29 25 23 24 25 28 29 27 24 22 22 23 21 21 20 21 28 31 33 34 34 32 27 24 24 22 20 20 20 18 12
25 24 23 23 22 23 26 27 27 28 27 25 26 26 25 25 26 26 26 25 24 24 23 23 24 22 19 14 10 13 18 22 25 27 28 26 24 24 26 26 26 26 28 30 31 33 33 34 40 45 45 44 42 41 40 38 35 30 24 22 22 24 30 32 27 26 23 24 26 23 21 19 19 25 30 34 36 36 35 32 28 26 23 22 21 21 21 12
27 26 25 24 23 24 26 27 26 27 28 26 26 26 26 26 26 26 27 25 24 26 26 24 26 26 20 19 19 17 18 22 24 27 30 30 28 28 30 31 31 32 31 28 28 30 33 39 45 46 43 41 39 38 37 36 37 35 32 28 26 28 34 34 30 28 24 23 25 24 22 20 19 24 32 36 38 38 38 36 32 28 24 23 22 23 22 13
30 29 27 25 25 25 27 27 26 27 27 26 26 26 26 27 27 27 28 26 22 23 26 24 25 26 20 18 22 23 25 26 25 27 31 32 33 34 34 36 36 36 32 29 29 31 36 45 46 41 39 39 37 36 36 36 35 36 35 33 34 34 35 33 29 27 24 24 26 24 24 24 20 22 30 35 37 38 39 39 36 31 27 23 20 21 23 19
34 32 30 28 27 26 28 28 28 28 26 26 26 26 26 26 27 27 28 30 23 21 23 25 26 26 21 18 21 27 31 31 28 29 31 34 36 36 37 39 39 37 34 34 36 36 38 42 43 39 35 36 38 36 35 35 35 36 36 35 39 38 33 30 24 18 13 14 17 18 20 21 18 18 23 27 31 35 38 40 38 34 30 25 17 16 22 23
37 35 33 31 29 27 29 29 29 28 26 24 25 25 26 25 25 25 26 31 31 25 21 22 28 28 23 20 21 27 30 31 31 31 32 35 36 37 39 39 39 39 38 38 39 41 40 35 34 37 37 35 36 38 37 35 36 38 39 40 41 39 34 31 26 21 16 14 17 19 21 25 24 22 22 21 25 32 36 39 40 37 33 29 24 21 24 25
39 38 36 34 32 29 29 30 29 28 26 24 24 25 25 24 23 24 25 29 33 29 22 21 25 25 25 25 25 26 30 33 31 30 33 35 35 36 38 39 40 41 40 38 38 41 42 34 26 28 34 37 36 37 39 39 38 40 42 45 43 37 34 31 28 26 24 24 27 23 17 19 22 21 19 18 21 26 30 35 39 39 35 32 30 28 27 27
40 40 38 37 36 33 30 30 28 26 24 23 24 24 24 23 21 21 23 25 29 27 21 18 17 19 22 23 25 27 30 32 29 30 35 35 35 35 36 39 41 40 38 37 36 39 42 39 31 24 27 34 37 39 41 39 38 41 45 44 41 38 36 34 32 27 23 24 26 20 12 13 20 22 18 18 20 22 26 32 35 38 39 36 32 29 28 29
39 39 39 38 38 36 33 32 29 26 23 21 23 23 22 21 18 17 18 17 18 16 14 13 10 14 16 17 23 28 26 25 27 33 37 36 36 36 36 40 41 39 37 36 37 40 39 38 37 33 29 29 36 41 42 40 39 43 45 41 39 38 35 34 32 27 26 28 31 30 24 20 28 34 30 26 25 24 26 31 34 38 40 38 34 29 28 28
37 38 38 36 37 38 35 34 33 28 22 20 20 20 19 17 14 11 8 5 4 4 7 9 10 13 13 13 19 26 25 20 21 31 38 37 37 38 38 41 40 37 37 38 40 41 37 35 37 38 37 33 36 40 40 41 42 42 41 38 38 37 35 32 27 26 27 26 31 38 30 17 24 36 35 32 31 30 29 29 32 37 39 39 35 31 29 28
35 37 37 35 35 36 35 34 34 28 23 19 18 18 16 14 11 7 2 2 3 4 6 8 10 10 11 12 13 21 27 20 14 25 38 41 39 39 39 39 38 35 36 38 41 38 34 32 30 33 39 38 35 35 36 38 40 40 38 35 34 33 32 30 25 26 26 20 27 39 30 14 17 32 34 30 32 35 32 28 28 33 38 39 36 32 30 29
35 36 37 36 35 34 32 32 32 29 23 19 16 16 14 11 10 7 4 6 5 5 10 11 11 10 9 13 12 16 27 24 13 19 36 43 40 40 39 36 35 34 36 38 38 38 34 29 26 28 33 33 31 32 33 33 33 34 35 35 33 32 31 28 26 24 19 16 27 39 33 17 14 27 33 34 36 35 32 29 26 28 36 41 39 35 32 30
34 35 36 38 37 36 33 30 29 26 22 17 14 13 12 11 12 9 5 10 8 6 9 10 12 13 10 11 13 15 24 27 17 16 33 44 42 43 42 35 34 31 32 37 37 37 37 31 28 28 26 24 25 30 32 30 28 26 27 29 27 26 26 25 24 20 12 11 19 29 29 21 18 23 29 34 36 33 31 31 27 25 29 36 40 39 34 31
34 34 35 37 38 37 35 31 27 24 19 16 14 13 14 12 15 18 12 7 7 7 10 10 11 14 11 11 12 13 20 28 23 16 29 45 46 47 47 42 40 33 28 37 37 34 38 39 34 29 26 24 22 26 29 31 31 27 26 26 19 10 9 11 10 9 11 9 8 13 16 20 30 33 31 34 37 34 32 30 27 26 26 29 35 39 37 33
33 33 33 35 37 37 35 31 27 23 17 15 15 16 18 12 12 26 26 14 8 5 8 12 11 12 11 7 6 9 14 22 26 18 21 40 47 47 47 45 43 37 30 34 35 31 31 35 38 34 30 28 27 27 29 31 33 33 32 30 20 7 2 6 5 3 9 10 9 14 13 17 32 37 34 37 38 37 36 32 28 26 24 25 28 32 36 37
32 33 33 33 35 36 35 30 25 22 15 14 17 17 21 17 11 16 20 22 22 16 12 13 11 11 9 5 4 10 11 14 23 22 18 31 44 46 46 45 43 41 35 27 29 32 25 22 33 40 37 34 32 31 28 25 27 31 34 32 26 19 11 6 4 3 4 4 6 14 13 13 23 27 28 30 31 33 34 34 32 28 24 25 26 27 31 35
31 31 33 33 33 34 34 30 23 19 14 14 19 21 26 26 17 9 9 17 25 27 25 21 17 14 11 8 8 10 11 12 20 26 21 25 38 44 45 45 43 43 40 27 22 31 32 28 30 31 33 37 35 32 28 23 22 25 29 32 35 38 27 9 4 7 6 5 3 12 14 19 27 29 26 25 26 29 29 30 32 30 27 25 26 27 29 31
29 28 30 32 31 31 32 29 22 17 14 17 21 27 34 30 18 11 10 13 18 22 24 24 23 21 18 16 15 12 11 13 16 23 23 21 28 38 42 43 43 44 43 36 27 25 27 32 32 23 25 33 34 32 30 27 25 21 27 38 41 40 33 18 11 14 12 7 6 11 17 24 28 29 29 27 28 30 29 28 29 30 28 26 26 27 29 30
29 26 28 31 30 29 28 27 21 16 16 20 25 30 34 30 23 18 14 12 14 14 15 15 15 15 14 14 15 14 12 12 13 16 20 20 21 31 38 37 39 42 43 41 37 29 24 26 30 25 24 27 29 31 32 31 29 24 28 40 36 26 26 24 13 9 8 6 6 11 18 21 20 20 22 24 27 31 32 31 29 28 27 27 27 26 26 27
30 27 27 28 27 27 27 25 20 17 18 23 29 30 28 27 27 25 21 19 17 16 15 14 11 10 10 9 10 12 12 11 11 11 16 19 17 23 32 33 35 41 44 42 37 31 26 23 23 25 25 22 23 28 30 31 33 31 31 32 25 16 19 24 15 5 4 4 4 9 16 23 28 25 18 16 19 23 28 31 31 31 29 28 27 24 25 26
31 26 26 27 25 25 26 25 19 16 19 23 28 27 25 26 26 24 24 26 24 23 21 18 15 13 12 11 10 10 9 8 8 10 12 13 12 15 24 29 32 36 42 46 41 31 25 20 20 25 24 20 22 29 33 33 35 36 35 31 27 22 20 25 23 12 5 4 3 5 9 19 33 35 27 22 20 18 20 23 27 30 31 30 28 24 23 25
30 26 25 27 26 24 24 24 18 14 18 21 23 23 23 25 25 24 23 23 23 21 18 16 16 15 15 15 13 13 11 9 9 8 7 6 8 11 16 22 28 30 33 41 43 38 31 25 23 24 22 22 27 31 32 34 36 39 39 36 33 28 20 19 26 26 17 8 3 2 6 14 23 25 23 23 22 21 21 21 23 25 28 31 31 26 24 25
29 27 25 26 25 22 22 23 16 11 15 17 19 22 22 22 24 24 22 20 18 16 14 16 17 16 17 18 17 17 16 15 13 9 6 6 6 9 11 14 19 22 23 28 34 38 36 30 26 23 23 26 29 27 26 28 32 38 42 42 40 35 24 12 12 26 31 20 9 5 7 19 25 20 15 15 16 19 21 22 22 22 23 27 30 29 28 27
28 26 24 24 23 20 19 18 12 8 11 11 12 16 18 17 19 22 24 22 19 15 13 13 15 15 15 15 15 17 17 15 13 10 9 10 9 9 9 9 10 12 15 18 24 32 34 29 28 28 27 27 24 23 25 26 28 33 38 43 43 41 36 22 12 19 28 26 19 10 10 27 36 28 21 18 14 14 17 21 24 24 24 24 24 26 28 28
26 23 20 21 20 18 17 15 9 8 9 6 8 9 12 13 14 17 21 20 17 13 10 10 11 12 11 10 11 14 13 11 9 10 11 11 10 10 10 8 8 8 10 12 16 22 25 23 26 30 29 28 26 24 25 26 29 35 39 43 44 44 43 38 31 27 22 22 22 12 8 23 33 27 24 23 18 16 15 17 22 25 26 26 25 23 24 24
26 21 18 18 17 13 11 11 9 7 9 10 10 10 9 10 12 15 18 16 13 9 8 9 11 11 10 8 8 10 10 9 9 10 13 14 12 10 11 10 7 6 7 8 9 12 13 14 18 17 15 18 22 23 25 29 32 37 40 41 43 47 45 42 41 35 24 23 26 17 10 21 28 25 23 23 22 21 18 16 19 21 24 28 29 27 24 22
26 22 17 16 15 9 6 8 11 11 11 12 13 13 12 10 10 12 15 14 13 11 8 7 8 10 10 9 8 8 8 9 10 9 12 15 14 13 12 11 9 7 5 5 6 7 8 9 10 9 7 9 10 10 15 24 30 32 35 38 41 44 44 43 42 33 24 24 30 27 20 22 26 26 23 21 20 21 19 17 19 20 21 26 29 30 28 25
24 23 20 18 12 3 3 8 10 11 12 12 11 11 12 12 11 9 11 11 12 13 10 7 8 10 10 11 10 8 8 8 10 10 11 13 15 15 14 12 11 9 6 5 6 5 7 8 6 7 10 9 9 8 10 15 22 24 26 33 38 41 43 45 43 38 32 28 32 40 36 26 24 25 25 23 20 19 17 16 16 18 19 21 24 27 27 25
22 21 21 21 12 3 4 8 10 9 10 12 11 9 10 11 11 10 9 9 9 11 9 7 8 9 8 9 10 9 8 8 9 11 12 13 16 18 16 14 13 11 9 7 7 7 8 7 6 8 11 11 13 16 15 15 18 18 20 27 35 37 41 47 48 46 42 31 31 45 48 37 31 26 23 22 20 19 19 17 16 17 20 23 24 25 26 26
22 19 18 17 14 11 11 10 10 10 10 10 9 8 8 8 9 10 10 9 8 7 8 9 8 6 4 4 8 9 9 9 10 11 12 14 18 19 20 19 17 16 14 11 9 10 10 8 8 11 14 14 14 14 17 21 22 20 21 26 32 35 41 49 51 49 47 40 40 47 46 41 39 33 26 25 24 22 23 22 20 20 21 24 26 26 24 23
21 20 16 14 14 15 13 11 11 11 10 9 8 7 8 8 7 9 11 11 9 6 8 11 10 8 5 2 5 9 10 11 11 11 13 15 17 18 20 21 20 20 18 15 13 12 11 9 9 12 17 18 14 11 14 20 24 27 28 28 30 35 41 47 49 48 48 47 48 49 43 40 43 40 37 38 37 35 35 33 31 29 27 23 22 22 21 18
20 19 17 15 14 13 11 10 12 12 9 9 8 7 9 10 8 8 9 12 12 7 7 10 11 12 11 6 5 8 10 12 13 14 16 17 18 19 19 20 21 21 20 18 15 14 13 12 12 16 20 19 15 11 13 18 24 29 33 34 34 36 39 42 44 45 47 47 46 47 46 46 44 42 43 45 44 43 42 40 35 31 30 26 20 18 18 19
18 17 16 16 15 14 12 12 13 13 11 9 9 10 10 10 10 10 8 9 13 12 9 10 11 12 13 12 10 9 10 13 17 18 18 18 18 18 18 19 21 23 23 21 19 18 18 17 16 17 20 19 14 10 14 20 24 30 38 41 39 39 38 38 39 41 45 47 46 46 49 49 44 42 44 46 46 45 44 43 36 29 28 29 24 18 17 19
17 15 14 15 15 14 14 13 13 13 12 10 11 13 13 11 12 13 10 7 10 10 9 11 12 13 14 13 12 11 13 17 20 21 20 19 19 19 19 20 21 23 24 23 22 21 20 19 18 16 17 18 13 10 15 16 16 26 38 37 36 40 41 39 39 39 40 44 48 51 52 47 41 40 43 45 46 44 41 40 36 29 27 29 30 26 22 19
Wind_Direction
319 318 316 315 314 312 310 306 302 297 294 291 287 283 281 278 277 276 276 276 277 278 278 279 280 281 285 287 287 284 281 277 272 268 257 231 221 222 219 215 216 216 215 216 218 218 218 219 222 227 229 236 237 229 223 219 227 234 246 253 195 139 134 142 133 161 226 226 232 233 217 204 184 178 179 192 225 253 256 255 257 205 178 173 187 205 220 202
319 318 317 315 313 312 311 310 308 303 299 295 292 289 285 282 279 277 276 275 274 275 276 277 277 277 280 283 283 282 282 279 275 272 261 235 224 226 221 216 217 216 215 216 217 219 221 223 226 229 231 236 231 228 229 226 230 230 247 244 178 131 125 127 116 73 277 230 241 239 221 224 218 235 185 166 213 298 285 268 264 224 192 191 190 195 210 208
318 317 317 316 314 312 310 311 310 308 304 300 296 293 289 286 282 279 277 275 274 273 274 275 274 275 277 279 280 281 282 280 280 276 265 242 224 226 222 217 218 217 216 216 215 215 216 218 224 227 228 231 227 229 233 230 230 228 239 225 166 140 134 129 120 76 19 250 240 236 226 226 219 230 269 246 281 15 3 323 256 240 225 212 202 194 199 205
316 316 315 315 314 313 311 309 308 308 307 304 301 297 293 289 285 282 279 277 275 273 272 272 272 273 273 275 278 279 282 285 287 279 264 240 217 218 218 215 215 216 215 214 211 208 208 208 213 220 224 226 223 226 234 233 232 226 222 194 150 151 145 139 134 93 9 354 258 240 236 228 219 226 253 284 316 67 48 45 82 77 282 232 222 208 191 198
317 315 314 313 312 312 311 309 307 306 305 306 305 302 299 293 289 285 282 280 277 274 272 270 271 271 270 272 273 276 281 286 293 280 250 231 217 213 212 210 211 213 213 212 210 206 204 205 207 211 216 220 221 226 235 235 234 226 211 169 159 159 148 145 133 74 350 353 330 253 246 243 229 229 245 285 50 77 63 56 70 82 83 100 248 228 192 190
318 316 314 312 310 309 309 308 307 305 304 304 304 303 301 297 292 288 285 283 280 278 273 270 269 269 269 268 269 272 272 273 286 276 254 233 222 214 208 204 206 211 211 211 211 207 204 205 208 209 213 215 220 228 232 234 236 230 215 190 182 167 155 150 120 339 329 329 328 291 259 250 242 241 251 271 75 84 9 49 64 81 90 94 92 211 193 190
316 315 313 312 310 308 306 305 304 305 304 303 302 300 298 296 293 291 289 287 284 281 277 272 269 268 268 266 267 267 266 262 254 260 257 237 231 220 208 203 203 209 212 211 210 208 205 207 210 211 214 214 218 226 227 229 239 237 219 211 221 208 174 171 302 313 317 317 320 309 274 254 251 251 255 264 164 208 259 250 217 122 92 102 111 134 176 190
312 312 311 310 309 307 305 304 303 303 303 302 301 297 293 292 291 293 293 292 289 285 280 274 269 268 267 266 265 264 263 241 237 253 253 240 240 229 214 207 205 209 213 212 211 210 208 209 211 212 214 215 218 224 225 225 239 240 220 218 238 235 223 250 283 291 304 316 314 301 285 273 265 256 255 267 253 219 233 248 244 225 181 123 112 145 175 186
306 306 307 307 307 305 304 302 301 301 301 300 297 294 291 290 291 295 296 297 292 287 282 275 271 270 267 266 265 263 259 240 242 250 249 239 234 229 219 212 209 208 210 209 208 211 211 210 210 212 215 216 219 223 224 224 235 241 236 241 245 241 249 260 262 263 287 306 306 298 293 287 274 257 251 254 257 232 225 241 249 242 226 183 131 157 181 187
302 302 302 302 302 303 302 300 299 299 300 298 295 292 291 292 296 298 296 295 290 286 281 276 274 272 270 267 265 263 247 241 240 238 239 230 222 222 214 209 206 202 202 202 205 209 211 211 210 213 216 216 218 221 224 226 232 239 246 251 245 242 246 252 252 245 269 292 297 298 297 289 272 254 246 243 246 237 224 235 243 245 237 215 213 172 183 187
300 300 299 299 299 298 299 298 298 297 297 295 292 290 292 295 298 297 294 291 289 286 283 280 277 275 273 270 270 266 233 232 233 226 222 214 209 206 204 204 199 195 194 197 204 209 210 211 212 216 219 218 218 221 224 228 234 239 244 247 242 244 244 241 240 233 255 277 292 305 301 286 264 251 244 239 243 244 230 233 235 242 239 223 220 199 184 183
298 297 297 298 297 297 296 296 296 296 296 293 290 290 292 295 294 292 291 289 288 286 285 282 280 279 276 276 279 255 232 223 222 218 207 205 202 192 191 193 191 192 193 197 204 207 210 211 214 219 219 220 220 222 227 228 235 239 242 247 243 247 244 231 230 235 253 266 288 303 286 265 253 246 242 237 240 246 241 238 233 235 239 228 214 201 186 182
299 297 296 295 296 296 296 295 295 295 294 291 290 291 291 292 289 287 287 286 285 284 284 282 281 279 277 281 193 201 229 214 210 211 201 201 201 194 192 189 188 190 193 200 205 207 210 213 217 220 219 222 222 222 227 229 236 239 243 249 246 251 243 224 230 241 247 262 282 289 273 266 262 252 244 236 237 242 242 241 233 229 235 233 218 198 189 187
304 301 297 295 294 294 294 293 294 294 293 290 289 290 290 288 285 284 283 282 281 281 282 281 282 279 277 281 182 203 221 216 210 205 200 201 200 199 198 196 196 194 192 195 200 205 209 213 217 220 221 223 222 223 226 228 234 236 242 246 247 256 243 221 233 243 245 260 275 281 274 272 271 261 246 236 236 241 244 243 237 230 230 235 227 200 191 193
309 306 303 300 297 294 292 291 291 293 292 290 289 289 288 286 283 282 280 278 278 277 278 279 280 279 277 276 224 216 219 225 217 202 203 206 202 203 204 206 209 205 199 196 200 205 208 212 215 218 221 222 223 226 226 225 226 229 241 243 242 252 245 232 238 241 247 263 271 275 273 272 272 265 249 237 236 239 243 243 241 238 229 232 231 209 191 190
311 309 307 305 302 299 294 290 289 290 289 287 287 287 285 282 281 280 278 276 274 273 274 274 275 276 277 274 245 229 222 226 220 205 209 212 207 206 208 211 212 209 205 202 203 206 210 213 215 218 220 221 224 227 227 230 230 227 238 242 238 244 249 247 243 240 250 265 269 269 271 277 277 266 250 240 238 239 242 242 241 244 237 231 230 216 198 195
311 309 308 306 305 302 298 294 291 289 287 284 283 284 282 280 279 278 277 274 272 271 270 270 270 269 272 268 254 244 225 221 218 209 209 210 207 206 210 209 206 206 206 206 206 207 209 212 215 217 219 220 224 226 227 233 231 227 231 238 238 240 247 250 245 244 253 259 265 273 278 281 276 265 253 243 240 239 242 241 240 243 240 232 228 221 213 217
312 311 309 307 306 303 298 295 293 291 289 286 283 281 280 278 277 275 274 273 271 270 269 268 266 265 265 258 250 246 226 217 217 213 206 201 198 201 207 205 202 204 204 204 206 207 208 211 214 217 219 220 221 221 223 227 228 227 228 234 241 244 246 248 246 245 253 260 266 279 288 288 274 261 254 248 244 243 243 242 240 241 241 235 230 224 222 231
315 314 313 311 309 305 299 296 294 292 291 290 287 284 280 277 276 273 271 271 270 269 268 265 261 259 256 250 247 240 224 213 213 213 208 202 196 196 199 199 201 204 203 202 203 206 207 209 212 215 217 217 218 220 223 225 228 229 231 236 241 247 248 247 246 247 256 266 267 274 287 291 276 259 252 249 246 245 244 241 239 239 240 237 233 228 226 236
315 315 315 315 314 311 304 300 298 294 293 292 291 289 286 282 278 274 270 268 269 267 263 264 264 258 249 242 242 234 220 213 212 211 210 207 202 198 197 198 198 202 205 203 203 206 207 210 215 216 216 216 218 221 226 230 230 231 233 235 239 247 248 246 246 249 259 269 267 270 279 283 278 265 256 250 246 244 241 239 237 236 239 239 236 231 228 232
313 312 313 314 314 314 310 307 305 300 297 295 293 292 290 288 285 280 277 270 268 268 265 262 263 260 249 237 234 228 218 215 213 210 211 211 206 203 201 200 198 200 205 203 203 207 209 217 220 219 218 218 220 222 226 231 232 234 236 240 246 246 246 248 249 250 258 269 268 268 271 275 278 269 257 249 246 246 245 243 240 239 242 243 241 235 230 225
310 310 309 310 310 312 311 310 308 305 304 303 299 296 293 292 290 288 286 277 262 262 269 265 262 261 252 236 230 227 223 221 217 211 213 212 208 206 203 202 203 204 203 199 202 208 214 222 224 221 219 219 220 222 226 230 232 235 237 244 249 245 246 254 256 257 262 268 268 267 269 271 277 275 261 252 253 255 254 252 248 247 249 248 244 237 229 220
310 308 307 306 306 307 308 309 308 307 309 310 305 301 298 295 295 296 295 288 268 250 261 265 265 265 256 239 227 225 226 225 221 216 215 214 212 209 206 206 207 206 204 202 204 208 216 225 226 222 220 219 220 222 225 228 231 233 235 241 245 242 247 257 258 259 260 264 267 266 268 267 267 273 266 259 259 257 254 252 248 246 249 250 249 243 230 222
309 308 306 305 304 304 304 305 305 306 310 312 309 305 301 298 300 300 298 295 281 261 259 259 258 262 261 250 233 227 230 229 224 219 218 218 214 211 209 210 210 208 208 209 210 213 217 224 227 223 221 221 221 222 224 226 228 232 233 236 240 242 247 257 261 262 259 254 259 271 280 274 266 266 269 268 262 255 251 248 244 241 244 245 243 243 234 226
308 307 305 304 302 301 301 302 302 304 307 310 309 306 302 301 302 301 301 300 290 278 275 266 256 254 251 244 235 229 228 228 224 217 220 223 218 214 211 211 212 212 212 211 214 219 221 222 225 224 223 223 223 223 224 225 227 232 233 233 238 243 248 255 263 270 272 266 261 269 282 277 269 266 270 273 264 259 254 249 246 242 242 242 238 236 234 228
307 306 305 303 300 297 297 298 298 300 303 307 306 303 301 301 301 302 304 302 296 289 283 271 253 243 242 237 231 227 227 231 225 212 216 222 219 218 214 211 213 216 217 214 216 224 225 223 225 226 225 224 224 225 225 224 227 232 235 234 237 243 249 254 260 267 274 272 267 267 268 276 277 269 268 275 274 273 265 255 250 244 241 242 239 235 231 228
307 306 305 304 301 297 294 293 294 296 298 300 298 298 300 300 300 304 308 305 300 293 276 261 230 223 233 227 221 218 219 231 222 208 215 219 215 216 217 215 214 215 217 214 217 227 227 223 224 227 229 227 226 227 225 224 225 232 236 237 237 241 246 252 260 265 269 274 274 271 268 270 271 265 264 271 275 277 272 263 254 245 241 241 239 236 232 228
310 308 306 306 303 299 295 291 292 295 296 293 291 293 296 296 294 299 310 313 303 277 252 238 206 210 221 217 218 213 211 223 217 207 213 217 213 213 215 218 219 218 216 213 218 228 230 225 225 226 227 227 229 229 228 225 226 232 236 238 240 241 245 251 259 265 270 277 274 269 266 259 262 264 265 269 269 268 267 263 256 248 243 241 239 237 232 228
314 310 307 307 303 300 298 293 291 293 294 288 283 284 287 289 281 268 265 266 241 220 227 214 200 212 217 212 215 208 206 211 210 203 207 210 212 214 216 218 220 221 222 221 225 231 235 234 232 232 230 231 233 232 231 230 229 233 236 239 243 243 246 252 257 264 271 272 262 263 262 250 262 265 262 261 260 259 260 262 260 252 245 241 241 240 235 229
317 312 310 307 302 299 298 296 292 292 291 285 277 273 273 270 250 214 194 229 223 221 232 221 211 217 213 210 209 204 204 202 197 198 201 205 210 213 217 219 218 220 224 227 230 233 237 241 240 237 236 238 241 237 234 233 232 236 239 241 245 247 249 253 258 264 273 264 253 258 258 254 269 266 258 254 254 256 260 263 267 261 249 242 241 243 240 232
318 315 312 308 303 300 297 296 294 291 288 279 267 258 254 240 215 195 213 236 231 227 226 216 212 214 212 212 205 201 203 200 197 195 196 200 204 206 210 211 210 214 223 226 229 231 234 239 241 240 241 239 240 240 238 235 232 233 239 240 242 248 250 254 256 253 253 257 253 257 257 250 250 255 256 256 256 256 258 259 264 267 260 248 242 243 244 238
320 316 313 309 305 304 301 299 296 291 284 268 255 240 227 214 209 214 217 224 244 240 216 203 202 202 207 218 212 206 204 201 201 199 196 199 201 205 208 207 203 201 212 221 223 228 230 233 238 242 243 235 228 233 236 236 232 227 230 230 223 230 241 239 241 234 239 251 251 255 253 243 246 253 257 258 258 255 254 256 258 264 269 261 249 246 248 246
324 318 314 308 305 305 302 300 297 291 281 255 242 227 210 203 225 228 222 218 242 251 205 201 196 191 200 216 216 214 211 205 204 201 197 200 203 208 210 211 208 204 209 217 216 220 228 234 235 235 237 234 227 224 223 225 226 223 223 219 205 181 166 219 226 242 256 255 244 244 245 250 258 263 263 258 257 256 255 255 256 258 266 268 260 254 254 252
327 322 316 310 306 304 301 299 295 287 275 240 228 216 205 211 231 232 227 227 237 250 240 222 207 197 202 210 225 225 217 208 208 208 202 200 203 206 208 210 211 211 215 218 213 213 219 230 231 227 228 229 227 225 222 221 223 223 222 220 215 210 198 201 206 191 250 274 224 221 224 245 255 258 264 263 258 256 256 255 255 256 259 265 265 262 260 258
329 326 319 313 308 303 299 297 292 281 266 229 220 213 210 220 224 228 237 228 235 248 249 245 242 236 233 237 249 242 221 207 208 210 211 207 206 207 208 209 210 212 216 218 214 214 217 229 233 227 226 228 227 226 224 223 226 226 221 221 224 222 216 215 239 235 266 318 237 210 221 246 254 258 265 268 263 257 255 254 253 253 255 260 261 260 260 261
327 325 318 313 308 304 300 295 289 277 253 226 222 222 222 224 221 224 239 230 237 253 254 252 254 254 253 248 247 247 228 215 209 207 210 213 211 210 212 214 213 214 218 220 219 212 215 232 239 229 224 229 228 226 222 218 220 218 214 219 225 227 224 228 256 265 270 289 265 232 239 252 262 268 266 262 262 258 254 253 250 248 250 254 256 257 259 261
325 324 317 312 311 310 305 297 288 269 242 226 227 230 230 229 224 224 238 239 241 259 267 261 253 250 250 244 237 230 219 213 207 202 202 202 205 210 212 215 215 214 217 221 225 221 218 237 243 233 229 231 229 228 226 223 220 212 213 221 224 228 231 230 243 269 254 257 264 242 246 253 255 261 263 259 257 255 253 252 250 247 245 247 251 254 257 259
327 328 319 314 319 319 310 301 289 262 237 229 232 235 235 236 231 230 240 249 249 257 267 266 256 245 238 239 232 214 204 204 195 180 181 185 194 207 209 210 213 214 215 217 222 226 227 239 246 239 237 236 226 221 221 224 226 222 224 227 220 212 216 216 219 238 221 231 272 247 248 252 246 242 248 252 252 253 252 250 249 247 243 242 243 246 252 256
326 327 321 317 324 324 312 303 290 257 235 234 239 241 241 241 238 236 243 253 257 260 263 264 260 255 244 244 250 231 216 215 196 164 161 178 190 201 205 207 210 213 217 218 220 223 227 236 246 243 243 239 223 214 212 215 222 225 230 235 230 225 219 211 212 215 210 213 250 258 254 253 252 250 249 248 249 249 249 247 247 249 247 243 241 242 249 253
325 326 322 320 326 327 315 307 295 259 240 243 248 250 250 249 246 241 242 251 257 256 256 254 250 252 252 248 256 260 254 247 223 185 163 186 191 192 203 207 207 209 215 220 222 224 226 231 240 242 239 227 214 211 214 215 215 217 222 226 227 228 225 219 220 220 219 217 194 227 260 257 258 260 256 253 250 245 242 244 247 250 248 243 239 241 246 252
324 325 324 323 327 329 319 314 305 265 242 247 254 254 255 257 254 246 242 248 256 253 251 250 248 254 262 260 259 264 264 261 252 232 223 238 213 188 197 205 206 207 210 216 221 223 224 226 233 237 232 223 219 222 230 230 223 220 220 222 223 223 216 208 222 222 220 224 218 198 256 262 261 263 264 265 262 250 240 238 241 243 242 241 240 240 246 254
325 327 327 323 327 330 319 314 311 272 242 251 268 266 258 259 261 253 248 254 264 265 260 257 254 255 260 260 256 261 264 262 259 249 243 247 230 201 190 188 192 194 196 202 210 217 221 222 227 233 232 228 230 235 240 242 238 232 228 227 226 224 219 212 219 222 217 223 233 232 257 264 263 263 263 265 267 260 248 238 237 236 236 241 241 239 246 254
328 330 330 325 331 335 319 308 299 263 251 275 302 285 261 257 264 257 250 256 266 264 250 237 234 239 247 246 241 251 259 256 245 234 230 240 236 212 202 198 188 183 190 192 198 210 217 219 225 233 238 237 237 237 236 237 236 230 229 230 227 225 225 224 230 234 225 219 227 229 248 259 262 264 263 261 258 259 260 247 241 241 238 239 244 245 250 255
330 330 333 334 339 339 322 322 334 307 280 285 292 287 266 248 252 251 246 251 258 245 226 220 222 229 238 240 236 243 248 240 230 221 218 231 242 227 219 222 212 200 197 193 199 207 208 211 218 227 238 238 236 238 235 232 229 227 227 229 229 229 228 228 231 236 237 228 223 222 235 251 255 259 261 260 257 258 261 249 245 250 243 237 243 250 252 255
332 331 336 343 343 337 330 349 360 350 324 302 291 294 293 276 261 245 231 238 251 242 227 222 225 229 235 240 241 242 242 231 224 218 210 220 238 242 237 233 225 221 208 197 214 221 216 217 216 216 221 221 226 233 228 226 227 229 231 231 232 230 227 226 228 229 233 232 226 225 235 248 252 256 259 256 256 265 267 255 251 257 252 242 242 247 253 258
335 335 335 344 355 13 5 351 344 341 339 327 311 303 300 298 298 273 231 226 237 235 234 240 235 237 244 247 246 252 256 239 230 238 233 227 235 241 243 241 230 221 218 230 249 259 253 246 240 243 245 249 249 224 201 217 228 229 230 231 232 232 230 228 227 227 228 230 231 234 239 246 248 253 256 253 254 265 265 255 255 258 254 249 246 248 251 254
337 339 337 341 354 8 330 328 320 326 342 337 326 317 301 295 306 302 267 246 242 228 220 228 236 241 250 254 253 257 265 258 250 256 261 257 253 249 250 257 253 240 239 259 275 280 280 271 258 255 252 257 260 239 221 235 250 241 230 227 228 232 232 228 227 228 229 228 234 239 240 241 242 247 255 252 252 258 254 253 264 264 255 253 256 255 254 253
334 338 339 336 333 328 323 317 314 327 344 340 331 329 311 290 294 307 296 280 283 268 237 224 219 224 238 251 253 256 268 279 277 271 272 274 269 261 257 261 267 262 257 265 276 284 297 293 274 269 260 254 263 259 243 247 258 255 240 229 226 228 232 232 231 232 230 228 236 242 241 240 241 242 245 246 248 254 254 257 264 267 264 263 263 260 257 258
330 332 335 330 322 322 323 321 319 328 341 336 331 335 323 302 287 298 299 288 287 289 266 252 242 242 253 247 245 259 273 284 286 282 281 283 284 279 272 268 268 268 264 263 267 280 296 293 280 287 281 268 268 274 255 251 257 256 247 239 232 228 232 236 236 236 236 236 240 245 246 246 245 244 246 249 254 260 263 265 265 266 268 269 268 261 252 251
330 330 329 327 329 327 322 319 320 328 336 330 327 330 318 309 294 279 281 283 282 277 268 268 265 262 266 269 266 268 274 276 278 282 287 290 290 292 289 280 274 272 269 267 266 271 284 288 286 296 297 284 270 268 256 248 253 254 248 243 239 235 235 238 240 240 239 240 243 245 247 248 248 249 251 254 258 261 264 267 269 270 268 264 265 264 248 241
329 330 324 322 330 331 325 321 320 323 326 321 324 326 314 312 310 288 267 270 277 277 272 271 272 267 264 267 273 269 261 261 267 273 280 287 290 291 289 285 282 281 277 275 274 274 280 287 289 300 307 295 278 274 261 250 253 256 250 244 243 242 241 242 243 242 241 241 243 244 245 247 247 248 252 254 255 258 261 265 267 270 270 261 255 251 240 235
328 329 322 318 322 324 321 320 319 319 322 322 324 322 315 315 314 302 292 274 262 264 271 275 278 277 268 266 275 275 263 260 264 267 271 277 283 285 284 283 285 286 284 283 282 278 279 284 287 298 308 296 282 280 279 274 267 256 249 247 250 249 247 246 245 244 245 245 243 243 245 249 250 250 251 252 253 255 258 263 264 265 269 264 254 247 241 238
Height
3147 3146 3145 3144 3143 3143 3142 3141 3140 3139 3139 3138 3138 3137 3137 3137 3137 3137 3137 3138 3138 3138 3139 3138 3138 3138 3138 3137 3137 3137 3137 3137 3136 3136 3137 3139 3138 3138 3139 3142 3143 3144 3147 3149 3150 3153 3155 3156 3158 3159 3160 3161 3161 3162 3162 3162 3162 3162 3162 3162 3162 3162 3162 3163 3164 3165 3165 3166 3165 3165 3165 3165 3165 3165 3166 3167 3168 3168 3168 3169 3169 3169 3170 3170 3171 3173 3174 3174
3145 3144 3143 3142 3142 3141 3140 3139 3138 3138 3137 3136 3136 3135 3135 3134 3134 3134 3134 3135 3135 3136 3136 3136 3136 3136 3136 3136 3135 3135 3135 3135 3135 3135 3135 3136 3136 3136 3138 3140 3141 3143 3145 3147 3149 3152 3154 3156 3157 3158 3159 3160 3161 3161 3161 3162 3162 3162 3162 3162 3161 3162 3163 3163 3164 3165 3165 3166 3165 3165 3165 3165 3166 3166 3166 3166 3167 3168 3168 3168 3169 3169 3169 3170 3171 3172 3173 3174
3143 3143 3142 3141 3140 3139 3138 3137 3137 3136 3135 3134 3134 3133 3133 3132 3132 3132 3131 3132 3132 3133 3134 3134 3134 3134 3134 3134 3134 3133 3133 3133 3133 3133 3133 3134 3134 3135 3136 3138 3140 3142 3144 3147 3149 3151 3153 3154 3156 3157 3158 3159 3160 3160 3160 3161 3161 3161 3161 3161 3161 3162 3163 3163 3164 3165 3165 3165 3165 3166 3166 3166 3167 3167 3167 3167 3167 3168 3168 3168 3168 3169 3169 3170 3170 3171 3172 3173
3142 3141 3140 3139 3138 3137 3136 3136 3135 3134 3133 3132 3132 3131 3131 3130 3130 3129 3129 3129 3129 3130 3131 3131 3131 3132 3132 3132 3132 3132 3131 3132 3131 3131 3131 3132 3133 3133 3134 3136 3138 3141 3143 3145 3147 3148 3150 3152 3154 3155 3156 3158 3158 3159 3159 3160 3160 3161 3160 3160 3161 3162 3162 3163 3164 3165 3165 3165 3166 3166 3166 3166 3167 3167 3168 3168 3168 3168 3168 3168 3168 3169 3169 3170 3170 3171 3172 3173
3140 3139 3138 3137 3136 3135 3134 3134 3133 3132 3132 3131 3130 3129 3128 3128 3127 3127 3127 3127 3127 3127 3128 3129 3129 3129 3130 3130 3130 3130 3130 3130 3130 3130 3130 3130 3130 3131 3132 3134 3136 3138 3140 3142 3143 3145 3148 3150 3151 3153 3154 3156 3157 3157 3158 3159 3160 3159 3159 3160 3161 3161 3162 3163 3164 3165 3165 3165 3166 3167 3167 3166 3166 3167 3167 3168 3168 3169 3169 3169 3169 3169 3170 3170 3171 3171 3171 3173
3138 3137 3136 3135 3134 3133 3132 3132 3131 3130 3130 3129 3129 3128 3127 3126 3125 3125 3125 3124 3124 3125 3125 3126 3126 3127 3128 3128 3128 3128 3129 3129 3129 3128 3128 3129 3129 3129 3131 3132 3134 3136 3138 3139 3141 3143 3145 3147 3148 3150 3153 3154 3155 3156 3158 3159 3159 3158 3158 3160 3160 3161 3162 3163 3164 3165 3165 3166 3166 3166 3166 3167 3166 3166 3167 3168 3169 3169 3169 3169 3169 3169 3170 3170 3171 3171 3171 3172
3136 3135 3134 3133 3132 3131 3130 3129 3129 3128 3128 3128 3127 3126 3125 3124 3123 3123 3122 3122 3122 3123 3123 3124 3123 3124 3125 3125 3126 3126 3126 3128 3128 3126 3127 3128 3128 3128 3129 3131 3132 3133 3135 3137 3138 3140 3143 3145 3147 3150 3152 3153 3154 3155 3157 3158 3158 3157 3157 3159 3159 3160 3161 3162 3163 3164 3165 3165 3166 3166 3166 3166 3165 3165 3167 3168 3169 3169 3169 3169 3169 3169 3169 3170 3170 3171 3171 3173
3134 3133 3132 3131 3130 3129 3128 3127 3126 3126 3126 3125 3125 3124 3123 3122 3122 3121 3120 3120 3120 3120 3121 3121 3121 3122 3122 3123 3123 3123 3124 3126 3125 3124 3126 3127 3127 3128 3128 3129 3130 3132 3133 3135 3137 3140 3142 3144 3146 3149 3150 3152 3154 3155 3156 3157 3156 3155 3156 3158 3159 3160 3160 3161 3162 3163 3164 3164 3165 3164 3164 3164 3165 3165 3166 3168 3168 3168 3168 3168 3168 3169 3169 3170 3170 3171 3171 3172
3132 3131 3130 3129 3128 3127 3126 3125 3124 3124 3123 3123 3122 3121 3121 3120 3120 3120 3119 3119 3118 3118 3118 3118 3119 3119 3120 3120 3120 3120 3122 3123 3123 3123 3124 3125 3125 3126 3127 3128 3129 3130 3132 3134 3137 3139 3140 3143 3146 3148 3149 3151 3153 3153 3155 3155 3155 3154 3155 3157 3158 3158 3159 3160 3160 3162 3163 3163 3163 3163 3162 3163 3164 3165 3164 3166 3168 3168 3168 3168 3168 3168 3169 3169 3170 3170 3171 3172
3130 3129 3128 3127 3126 3125 3124 3123 3122 3122 3121 3120 3119 3118 3118 3118 3119 3119 3118 3117 3116 3116 3116 3116 3116 3117 3117 3118 3118 3118 3120 3120 3120 3122 3122 3123 3124 3125 3126 3127 3128 3129 3130 3132 3134 3136 3140 3143 3146 3148 3149 3150 3151 3152 3153 3153 3153 3154 3154 3155 3156 3157 3158 3158 3159 3160 3162 3162 3162 3162 3161 3162 3163 3162 3161 3163 3166 3166 3167 3167 3167 3168 3168 3169 3169 3169 3170 3171
3128 3127 3126 3125 3124 3123 3122 3121 3120 3120 3119 3118 3117 3116 3115 3116 3116 3116 3116 3115 3114 3114 3114 3114 3114 3114 3115 3115 3116 3116 3117 3117 3118 3120 3121 3121 3122 3124 3125 3126 3127 3128 3129 3131 3134 3136 3140 3144 3146 3146 3147 3148 3150 3151 3151 3152 3152 3153 3153 3153 3154 3155 3155 3156 3158 3159 3160 3160 3160 3161 3160 3161 3161 3158 3157 3161 3164 3165 3166 3166 3167 3167 3168 3168 3168 3169 3169 3170
3125 3124 3123 3122 3121 3120 3119 3118 3118 3117 3116 3115 3114 3114 3113 3113 3113 3113 3113 3113 3112 3112 3112 3112 3112 3112 3112 3113 3114 3114 3114 3115 3116 3118 3119 3120 3121 3122 3123 3125 3127 3128 3130 3132 3134 3137 3140 3142 3143 3143 3145 3147 3148 3149 3150 3151 3151 3151 3152 3152 3152 3153 3153 3154 3157 3158 3159 3159 3159 3161 3159 3158 3157 3154 3155 3160 3163 3164 3165 3165 3166 3166 3167 3167 3167 3168 3168 3169
3123 3121 3120 3119 3118 3117 3116 3115 3115 3114 3114 3112 3111 3111 3111 3111 3111 3110 3110 3110 3110 3110 3109 3109 3110 3110 3110 3111 3112 3112 3112 3112 3114 3115 3117 3118 3119 3121 3122 3124 3126 3127 3129 3132 3134 3137 3138 3140 3141 3142 3144 3145 3146 3148 3148 3149 3149 3150 3152 3151 3151 3152 3151 3154 3156 3157 3158 3158 3158 3160 3157 3153 3153 3154 3156 3159 3160 3162 3164 3164 3165 3165 3166 3166 3166 3167 3168 3168
3120 3119 3118 3117 3116 3114 3113 3112 3111 3111 3110 3109 3109 3109 3109 3108 3108 3108 3108 3108 3107 3107 3107 3107 3107 3107 3108 3109 3110 3110 3110 3110 3111 3113 3115 3117 3118 3120 3121 3123 3124 3126 3128 3130 3132 3134 3136 3137 3138 3140 3141 3142 3144 3146 3147 3148 3148 3149 3150 3150 3150 3150 3150 3153 3155 3155 3156 3157 3157 3159 3154 3150 3151 3154 3155 3157 3158 3160 3162 3162 3163 3164 3165 3165 3166 3166 3167 3167
3117 3116 3115 3114 3113 3112 3110 3109 3108 3108 3107 3106 3106 3106 3106 3105 3105 3105 3105 3105 3105 3105 3105 3105 3105 3105 3105 3107 3108 3108 3108 3108 3110 3113 3114 3115 3117 3118 3120 3122 3124 3126 3127 3128 3130 3131 3133 3134 3134 3136 3137 3140 3142 3143 3144 3145 3146 3147 3148 3148 3149 3148 3148 3151 3154 3154 3155 3156 3157 3157 3152 3148 3150 3153 3153 3155 3157 3158 3160 3161 3162 3163 3163 3164 3165 3166 3166 3167
3115 3113 3112 3111 3110 3109 3107 3106 3106 3105 3104 3103 3103 3103 3103 3102 3102 3103 3103 3103 3102 3102 3102 3102 3102 3102 3103 3105 3105 3105 3106 3106 3109 3111 3111 3113 3115 3118 3120 3121 3123 3125 3126 3127 3128 3129 3130 3131 3132 3134 3135 3138 3138 3139 3143 3143 3143 3145 3145 3146 3147 3147 3148 3149 3151 3153 3155 3155 3155 3154 3151 3148 3149 3151 3152 3153 3154 3157 3158 3159 3160 3161 3162 3163 3164 3165 3165 3165
3113 3112 3110 3109 3108 3106 3104 3103 3103 3102 3101 3100 3100 3100 3100 3099 3099 3100 3100 3100 3100 3100 3100 3099 3100 3100 3100 3102 3102 3103 3104 3104 3106 3107 3109 3111 3113 3116 3117 3118 3121 3123 3123 3124 3125 3126 3127 3128 3129 3131 3132 3134 3135 3138 3140 3137 3137 3141 3143 3144 3145 3146 3148 3148 3149 3152 3153 3154 3153 3152 3150 3148 3148 3149 3150 3151 3153 3154 3156 3157 3158 3159 3161 3162 3163 3164 3164 3164
3112 3110 3109 3107 3106 3104 3101 3100 3100 3099 3098 3097 3097 3097 3096 3095 3095 3096 3096 3096 3096 3097 3096 3096 3096 3097 3098 3099 3099 3100 3101 3102 3103 3105 3107 3109 3110 3112 3114 3117 3119 3120 3121 3121 3122 3123 3124 3125 3127 3128 3129 3130 3131 3133 3131 3129 3133 3138 3141 3143 3143 3145 3146 3146 3148 3150 3151 3151 3151 3151 3149 3147 3147 3148 3148 3149 3151 3152 3154 3156 3157 3158 3159 3160 3162 3163 3164 3164
3110 3108 3107 3106 3104 3102 3099 3097 3097 3096 3095 3094 3093 3093 3093 3092 3091 3092 3092 3092 3093 3093 3093 3092 3093 3094 3095 3096 3097 3097 3098 3100 3101 3103 3106 3107 3109 3110 3112 3115 3116 3117 3118 3117 3119 3119 3120 3122 3123 3121 3121 3123 3125 3127 3127 3130 3135 3138 3140 3141 3142 3143 3143 3144 3146 3148 3149 3149 3148 3149 3147 3146 3146 3146 3147 3147 3149 3150 3152 3154 3155 3156 3158 3159 3160 3162 3163 3163
3108 3107 3106 3104 3102 3100 3096 3095 3094 3092 3092 3091 3090 3089 3089 3088 3087 3087 3088 3088 3089 3089 3089 3089 3089 3091 3093 3094 3095 3095 3095 3097 3098 3100 3103 3105 3107 3109 3110 3111 3113 3115 3114 3115 3116 3117 3119 3118 3114 3113 3116 3120 3124 3127 3129 3132 3136 3137 3139 3139 3140 3141 3139 3141 3145 3146 3148 3147 3146 3147 3146 3145 3145 3145 3145 3146 3147 3148 3150 3151 3153 3154 3155 3156 3158 3160 3161 3162
3105 3104 3103 3102 3100 3098 3094 3092 3091 3089 3088 3088 3087 3086 3085 3084 3083 3082 3083 3084 3085 3084 3084 3086 3085 3085 3089 3092 3092 3093 3093 3094 3095 3098 3099 3101 3104 3105 3107 3107 3108 3109 3110 3114 3116 3116 3116 3111 3107 3111 3117 3121 3125 3127 3130 3132 3134 3136 3137 3137 3138 3138 3137 3139 3143 3144 3147 3146 3144 3145 3144 3143 3143 3143 3144 3145 3145 3145 3146 3148 3150 3152 3153 3155 3156 3158 3160 3162
3102 3101 3101 3100 3098 3096 3092 3090 3089 3087 3086 3085 3084 3083 3081 3080 3079 3079 3078 3078 3081 3080 3079 3082 3081 3081 3085 3088 3088 3089 3089 3089 3092 3094 3095 3097 3099 3100 3102 3103 3103 3105 3108 3112 3112 3112 3110 3104 3105 3113 3118 3121 3124 3126 3128 3129 3132 3133 3135 3136 3135 3135 3136 3138 3140 3143 3145 3144 3142 3143 3142 3141 3142 3142 3141 3142 3142 3142 3144 3146 3148 3151 3152 3153 3154 3156 3158 3160
3098 3098 3097 3097 3096 3094 3091 3088 3087 3085 3084 3084 3082 3080 3079 3078 3077 3076 3074 3073 3075 3077 3077 3077 3076 3076 3080 3083 3084 3084 3083 3085 3088 3090 3091 3092 3094 3097 3098 3099 3100 3103 3106 3106 3106 3106 3104 3101 3106 3113 3116 3119 3121 3123 3125 3127 3129 3130 3132 3132 3130 3132 3136 3137 3139 3141 3142 3142 3141 3141 3140 3138 3139 3139 3138 3138 3139 3141 3143 3144 3146 3148 3149 3151 3153 3154 3156 3158
3094 3094 3093 3093 3093 3092 3089 3086 3084 3083 3083 3083 3080 3079 3077 3076 3076 3074 3073 3069 3067 3070 3074 3074 3072 3072 3075 3078 3079 3079 3079 3082 3084 3086 3087 3088 3090 3093 3094 3096 3098 3100 3101 3102 3102 3102 3101 3102 3106 3110 3114 3116 3118 3120 3122 3124 3126 3127 3128 3128 3126 3131 3135 3135 3137 3139 3140 3140 3139 3140 3138 3135 3136 3136 3135 3136 3137 3137 3139 3141 3143 3144 3146 3149 3151 3152 3153 3156
3090 3089 3089 3089 3088 3088 3087 3084 3082 3082 3082 3081 3080 3078 3076 3075 3075 3073 3072 3068 3062 3064 3068 3068 3067 3069 3070 3071 3072 3075 3075 3075 3079 3083 3083 3084 3087 3089 3091 3094 3095 3096 3097 3100 3102 3101 3100 3103 3106 3108 3111 3113 3115 3117 3118 3120 3123 3124 3124 3123 3125 3130 3133 3135 3137 3138 3138 3137 3138 3140 3138 3133 3132 3133 3133 3134 3134 3134 3136 3137 3138 3141 3143 3145 3146 3148 3151 3153
3087 3085 3084 3084 3083 3084 3084 3081 3080 3080 3080 3080 3078 3076 3075 3074 3074 3072 3072 3068 3061 3060 3063 3062 3063 3064 3065 3066 3067 3070 3071 3070 3076 3080 3079 3080 3084 3086 3089 3090 3091 3093 3096 3100 3101 3098 3098 3103 3105 3107 3109 3111 3112 3113 3115 3118 3121 3120 3118 3121 3126 3129 3132 3133 3135 3137 3137 3135 3136 3138 3137 3132 3129 3129 3131 3132 3131 3132 3133 3133 3135 3138 3140 3141 3143 3145 3148 3150
3083 3081 3080 3079 3077 3078 3079 3078 3077 3077 3079 3079 3076 3075 3074 3073 3073 3072 3072 3069 3061 3058 3058 3057 3059 3060 3060 3061 3062 3065 3067 3068 3072 3075 3074 3077 3081 3084 3086 3086 3087 3090 3094 3099 3098 3092 3094 3101 3103 3104 3106 3108 3107 3108 3111 3116 3117 3114 3115 3122 3126 3128 3131 3132 3134 3135 3134 3133 3132 3133 3135 3132 3125 3124 3128 3130 3129 3130 3131 3131 3132 3134 3136 3137 3140 3142 3145 3147
3081 3077 3076 3076 3073 3072 3073 3073 3073 3073 3076 3076 3074 3073 3073 3072 3073 3072 3074 3072 3060 3055 3055 3055 3056 3056 3057 3058 3059 3062 3064 3065 3067 3070 3072 3074 3077 3080 3081 3082 3084 3088 3091 3093 3090 3087 3092 3097 3099 3100 3102 3103 3102 3104 3109 3113 3113 3112 3116 3121 3123 3127 3129 3130 3132 3132 3132 3132 3127 3125 3131 3129 3120 3120 3126 3127 3127 3127 3127 3128 3129 3131 3133 3134 3137 3139 3142 3145
3077 3073 3071 3071 3070 3068 3068 3068 3068 3069 3072 3072 3072 3071 3071 3072 3072 3072 3076 3071 3058 3053 3054 3053 3054 3054 3055 3056 3057 3059 3061 3063 3064 3066 3069 3071 3073 3076 3077 3079 3084 3087 3089 3088 3087 3088 3092 3095 3097 3099 3099 3099 3101 3104 3107 3110 3111 3113 3117 3120 3123 3126 3127 3129 3130 3130 3132 3128 3120 3120 3126 3125 3116 3116 3122 3123 3121 3123 3124 3126 3127 3128 3130 3132 3134 3136 3139 3142
3074 3070 3067 3066 3065 3064 3064 3064 3063 3065 3067 3069 3068 3068 3069 3070 3070 3072 3074 3065 3054 3052 3052 3051 3052 3053 3053 3054 3055 3056 3058 3060 3062 3063 3065 3068 3071 3074 3076 3080 3084 3086 3087 3087 3088 3090 3091 3094 3096 3096 3096 3098 3102 3104 3105 3108 3110 3114 3117 3119 3122 3123 3125 3127 3127 3130 3130 3119 3113 3117 3122 3124 3116 3108 3114 3118 3117 3121 3123 3124 3125 3126 3128 3129 3131 3133 3136 3139
3071 3068 3064 3060 3058 3059 3060 3061 3061 3061 3064 3065 3065 3066 3066 3067 3068 3070 3064 3054 3051 3051 3050 3050 3051 3050 3052 3052 3053 3054 3056 3058 3059 3060 3062 3064 3067 3070 3072 3076 3080 3084 3086 3085 3085 3088 3090 3092 3092 3092 3095 3098 3100 3102 3103 3106 3109 3112 3114 3117 3120 3121 3123 3124 3124 3129 3124 3110 3109 3116 3120 3124 3112 3100 3107 3114 3115 3119 3121 3122 3123 3124 3125 3126 3128 3130 3132 3135
3068 3065 3061 3057 3053 3053 3054 3056 3057 3058 3060 3061 3062 3062 3063 3064 3063 3057 3051 3049 3050 3049 3047 3049 3049 3049 3050 3050 3051 3052 3054 3055 3057 3058 3059 3060 3062 3063 3065 3068 3072 3077 3079 3079 3081 3085 3086 3087 3088 3090 3093 3095 3097 3098 3101 3103 3106 3109 3111 3113 3117 3119 3120 3121 3120 3120 3113 3106 3110 3116 3118 3116 3103 3096 3105 3110 3112 3117 3118 3119 3122 3122 3123 3124 3125 3127 3129 3132
3064 3061 3059 3054 3051 3049 3048 3050 3052 3054 3055 3057 3058 3058 3060 3060 3052 3044 3045 3049 3048 3045 3046 3047 3047 3048 3049 3049 3050 3051 3052 3054 3055 3057 3058 3059 3060 3061 3063 3066 3068 3071 3072 3074 3078 3081 3083 3085 3086 3088 3088 3090 3092 3093 3095 3097 3099 3103 3105 3108 3111 3114 3117 3117 3114 3112 3108 3106 3110 3114 3116 3109 3096 3096 3102 3105 3110 3114 3115 3118 3119 3120 3121 3121 3123 3125 3126 3128
3061 3057 3054 3051 3048 3045 3043 3045 3047 3049 3051 3052 3053 3055 3055 3051 3043 3040 3044 3047 3045 3044 3045 3046 3046 3047 3048 3049 3049 3048 3049 3052 3053 3055 3056 3057 3058 3059 3062 3065 3067 3070 3071 3073 3075 3077 3080 3079 3078 3079 3081 3083 3086 3088 3091 3094 3097 3099 3102 3106 3107 3106 3108 3109 3108 3108 3106 3106 3108 3111 3111 3102 3094 3095 3098 3102 3108 3111 3113 3115 3117 3118 3119 3119 3121 3122 3123 3124
3059 3055 3050 3047 3045 3042 3039 3041 3043 3045 3047 3048 3049 3050 3046 3041 3039 3041 3043 3044 3043 3042 3043 3044 3045 3046 3047 3048 3047 3046 3047 3048 3049 3051 3052 3054 3055 3057 3059 3061 3064 3068 3069 3071 3071 3073 3075 3071 3070 3074 3077 3079 3083 3086 3090 3094 3095 3097 3101 3104 3100 3096 3100 3104 3104 3104 3105 3106 3106 3106 3103 3096 3093 3095 3098 3102 3105 3107 3110 3112 3114 3116 3117 3118 3118 3119 3120 3120
3056 3054 3048 3044 3042 3040 3037 3037 3039 3042 3043 3044 3044 3042 3037 3036 3040 3041 3041 3041 3041 3039 3040 3043 3044 3044 3045 3045 3045 3044 3045 3046 3046 3048 3050 3053 3055 3057 3059 3061 3063 3065 3066 3068 3068 3069 3071 3068 3068 3074 3076 3077 3080 3083 3087 3090 3091 3094 3096 3094 3091 3094 3101 3105 3104 3103 3105 3105 3102 3100 3098 3095 3094 3093 3095 3100 3101 3104 3107 3109 3111 3113 3115 3116 3116 3116 3117 3117
3052 3051 3046 3041 3040 3039 3036 3035 3036 3038 3039 3039 3038 3035 3033 3036 3038 3039 3038 3039 3039 3038 3039 3041 3042 3042 3041 3041 3042 3042 3043 3044 3044 3045 3047 3051 3053 3054 3056 3059 3061 3063 3064 3066 3064 3064 3067 3065 3066 3071 3073 3074 3078 3082 3085 3087 3088 3090 3089 3088 3091 3098 3103 3104 3104 3103 3105 3104 3099 3096 3095 3095 3094 3090 3091 3095 3098 3100 3103 3105 3108 3110 3112 3114 3114 3115 3115 3115
3047 3046 3042 3038 3038 3037 3034 3033 3033 3034 3035 3034 3032 3031 3032 3034 3035 3037 3037 3036 3037 3038 3038 3039 3039 3039 3039 3039 3039 3040 3041 3041 3042 3043 3045 3047 3049 3049 3051 3054 3056 3057 3059 3060 3060 3062 3065 3064 3064 3066 3070 3073 3077 3079 3082 3084 3086 3087 3086 3087 3092 3096 3096 3099 3101 3101 3102 3102 3097 3093 3091 3089 3087 3086 3089 3093 3095 3097 3100 3102 3104 3107 3109 3111 3112 3113 3113 3113
3043 3043 3038 3035 3036 3035 3032 3030 3030 3030 3031 3030 3029 3030 3030 3031 3033 3036 3036 3034 3035 3035 3036 3037 3037 3037 3037 3037 3037 3037 3039 3039 3040 3042 3043 3044 3044 3045 3047 3049 3051 3052 3053 3055 3057 3060 3064 3064 3062 3063 3068 3071 3072 3074 3076 3078 3081 3084 3085 3087 3088 3090 3090 3092 3094 3095 3097 3098 3095 3092 3087 3079 3078 3082 3087 3091 3093 3095 3098 3099 3100 3103 3105 3107 3109 3110 3111 3110
3040 3039 3036 3032 3033 3033 3029 3027 3027 3027 3028 3028 3028 3028 3028 3028 3030 3032 3033 3032 3032 3032 3033 3034 3035 3034 3034 3035 3036 3036 3036 3037 3038 3040 3041 3041 3041 3042 3043 3045 3046 3048 3050 3053 3055 3058 3061 3062 3060 3061 3065 3066 3065 3067 3070 3073 3076 3078 3079 3081 3083 3086 3087 3089 3090 3090 3092 3092 3091 3092 3084 3072 3073 3080 3083 3087 3090 3093 3095 3096 3098 3099 3101 3104 3106 3107 3108 3109
3037 3036 3033 3030 3030 3030 3027 3025 3024 3025 3025 3026 3025 3025 3025 3026 3026 3028 3029 3029 3029 3030 3031 3031 3032 3032 3032 3033 3034 3034 3034 3035 3037 3038 3039 3039 3039 3040 3041 3042 3043 3046 3048 3050 3053 3055 3057 3057 3057 3058 3061 3060 3061 3065 3069 3070 3071 3072 3074 3075 3078 3081 3084 3086 3086 3084 3086 3086 3085 3087 3079 3068 3072 3079 3081 3085 3088 3089 3092 3093 3094 3096 3098 3100 3102 3104 3106 3106
3035 3033 3030 3028 3027 3028 3026 3024 3023 3023 3024 3024 3023 3023 3023 3024 3024 3025 3026 3027 3028 3028 3029 3030 3031 3031 3031 3031 3032 3032 3032 3034 3035 3037 3037 3037 3037 3038 3039 3040 3041 3043 3046 3047 3049 3050 3051 3052 3054 3055 3056 3058 3061 3065 3067 3068 3069 3070 3070 3071 3074 3078 3079 3081 3080 3078 3082 3082 3081 3085 3077 3065 3070 3077 3079 3083 3086 3087 3089 3090 3091 3093 3095 3097 3099 3101 3103 3104
3033 3032 3029 3026 3026 3026 3024 3023 3023 3023 3023 3023 3022 3022 3023 3023 3023 3023 3024 3026 3026 3027 3027 3028 3029 3029 3029 3029 3030 3030 3030 3032 3034 3035 3035 3035 3035 3037 3038 3038 3040 3042 3043 3044 3045 3046 3048 3050 3052 3051 3053 3057 3060 3063 3064 3065 3066 3066 3066 3068 3070 3071 3073 3076 3076 3076 3079 3078 3079 3083 3074 3064 3068 3075 3077 3081 3084 3085 3087 3088 3089 3091 3092 3094 3095 3098 3100 3101
3031 3030 3028 3026 3024 3024 3023 3022 3022 3022 3022 3022 3022 3022 3022 3022 3021 3021 3023 3024 3024 3025 3026 3026 3027 3027 3027 3027 3027 3028 3029 3030 3031 3033 3034 3033 3033 3035 3036 3037 3039 3040 3041 3042 3042 3044 3046 3048 3048 3050 3053 3056 3058 3059 3059 3061 3061 3061 3062 3065 3065 3068 3072 3074 3074 3075 3074 3073 3076 3077 3068 3064 3070 3073 3075 3079 3081 3083 3085 3086 3087 3089 3090 3091 3092 3095 3097 3097
3029 3028 3027 3026 3024 3023 3023 3022 3022 3022 3022 3021 3021 3021 3021 3020 3020 3020 3021 3022 3022 3023 3024 3025 3025 3025 3025 3025 3026 3026 3026 3028 3029 3030 3031 3031 3031 3032 3034 3036 3037 3038 3039 3040 3040 3041 3043 3044 3045 3047 3049 3051 3052 3052 3053 3055 3057 3057 3059 3061 3062 3065 3067 3068 3070 3070 3066 3067 3071 3068 3062 3064 3069 3072 3074 3077 3079 3080 3083 3084 3085 3086 3087 3089 3090 3092 3093 3095
3028 3026 3025 3024 3024 3023 3023 3023 3022 3022 3021 3021 3020 3020 3020 3019 3018 3018 3019 3019 3020 3021 3022 3023 3023 3023 3023 3023 3024 3024 3025 3026 3028 3028 3029 3030 3030 3030 3032 3034 3036 3037 3038 3039 3039 3040 3041 3042 3044 3045 3046 3047 3047 3048 3049 3051 3052 3053 3055 3057 3059 3060 3062 3064 3063 3059 3059 3064 3064 3060 3060 3065 3067 3069 3073 3076 3078 3079 3081 3082 3083 3084 3085 3087 3088 3089 3090 3092
3029 3027 3025 3023 3023 3023 3023 3023 3022 3021 3021 3020 3019 3019 3019 3018 3017 3017 3018 3018 3018 3019 3021 3020 3020 3021 3021 3021 3022 3023 3023 3024 3026 3026 3027 3027 3028 3029 3030 3032 3034 3036 3037 3038 3039 3039 3040 3041 3042 3043 3043 3044 3044 3045 3047 3048 3048 3049 3051 3052 3054 3056 3057 3056 3052 3050 3057 3061 3054 3052 3059 3063 3065 3069 3072 3074 3076 3078 3079 3080 3081 3082 3084 3085 3085 3086 3087 3088
3028 3028 3026 3024 3023 3023 3023 3022 3021 3020 3020 3020 3019 3018 3017 3017 3016 3016 3016 3017 3017 3018 3018 3018 3018 3018 3019 3020 3021 3022 3022 3023 3024 3025 3025 3025 3026 3027 3029 3030 3032 3034 3036 3037 3038 3038 3038 3039 3040 3040 3040 3041 3042 3044 3045 3045 3045 3045 3046 3047 3049 3051 3050 3047 3045 3048 3054 3052 3047 3051 3058 3059 3063 3069 3071 3072 3074 3075 3076 3078 3079 3080 3081 3082 3083 3083 3084 3085
3028 3027 3026 3025 3024 3023 3022 3021 3020 3020 3020 3019 3018 3018 3017 3016 3016 3015 3014 3015 3016 3016 3016 3016 3016 3017 3017 3018 3019 3020 3021 3022 3022 3022 3023 3024 3025 3026 3027 3029 3030 3031 3034 3036 3037 3037 3037 3038 3038 3038 3037 3038 3041 3043 3043 3043 3042 3041 3041 3042 3043 3044 3043 3042 3044 3048 3049 3047 3049 3054 3055 3056 3061 3066 3069 3071 3072 3072 3073 3075 3076 3078 3079 3080 3081 3081 3082 3083
3027 3026 3025 3024 3024 3023 3022 3021 3020 3019 3019 3018 3018 3017 3016 3015 3015 3015 3014 3013 3014 3015 3015 3015 3015 3015 3016 3017 3019 3020 3020 3020 3020 3020 3021 3022 3023 3025 3026 3027 3028 3029 3031 3033 3035 3035 3036 3037 3037 3036 3035 3036 3038 3040 3041 3040 3038 3035 3035 3037 3039 3039 3039 3040 3044 3047 3047 3046 3050 3053 3050 3051 3057 3063 3066 3068 3068 3068 3069 3071 3073 3074 3076 3078 3079 3078 3079 3080
3027 3026 3024 3023 3022 3021 3021 3020 3020 3019 3018 3018 3017 3016 3016 3015 3014 3014 3013 3013 3012 3012 3013 3013 3013 3014 3015 3016 3017 3018 3018 3018 3018 3019 3019 3020 3021 3023 3024 3025 3026 3026 3028 3030 3032 3033 3034 3035 3035 3036 3035 3034 3036 3038 3037 3035 3034 3031 3030 3032 3034 3036 3036 3038 3041 3044 3043 3044 3048 3047 3043 3044 3054 3060 3062 3063 3064 3064 3065 3067 3069 3071 3072 3074 3076 3076 3077 3077
3026 3025 3024 3022 3021 3021 3020 3019 3019 3018 3017 3017 3016 3015 3015 3015 3014 3013 3012 3012 3011 3011 3011 3012 3011 3012 3013 3015 3015 3014 3014 3015 3016 3016 3018 3019 3019 3021 3022 3023 3024 3024 3025 3028 3029 3031 3033 3033 3034 3036 3034 3032 3035 3035 3033 3034 3032 3026 3025 3028 3031 3032 3033 3036 3037 3038 3040 3042 3041 3037 3036 3043 3053 3057 3057 3059 3060 3060 3061 3063 3066 3068 3069 3070 3071 3073 3074 3074